CZ-6A DEB, 56667

Orbit data source: Space-Track

CZ-6A DEB, 56667 is space debris in SSO originally from a launch on Fri, 11 Nov 2022 UTC launched from the Taiyaun Space Center, China (TSC). Debris objects in space refer to the collection of defunct objects orbiting the Earth. Examples of debris include non-operational satellites, rocket bodies, and fragments generated from explosions, collisions, or faulty payload assembly.

Loading next visibility...
Identifier
56667, 2022-151AGT
Orbit
SSO
Country
Flag of CNCN / PRC
Related business
Manufacturer
SAST
Mission
Spacecraft
Bus & Motor
Unknown
Mass
Unknown
Launch date (UTC)
2022-11-11 (3 years ago)
Launch vehicle
Unknown
Launch site
Taiyaun Space Center, China (TSC)
Object type
Payload
Rocket body
Debris
Shape & HBR
Unknown shape, 0.1 m
Radar Cross Section
Small (<0.1 m²)

Expand to show TLE details & history
Last TLE update: 13 hours ago

TLE from 13 hours ago
0 CZ-6A DEB
1 56667U 22151AGT 26129.95201653  .00003539  00000-0  77356-3 0  9993
2 56667  98.8056 216.4806 0107221  77.3601 283.9558 14.54930200166227
Epoch: 2026-05-09T22:50Z
TLE epoch observation values (Epoch: 2026-05-09T22:50:54.228Z)
Latitude
-0.00001°
Longitude
5.99258°
Altitude
694.99 km
Speed
7.518 km/s
True Right ascension
14h 25m 55s
True Declination
0° 00' 00"
Sunlit
Object was in full shadow at epoch
Visualization orbit readout
Latitude
Unknown
Longitude
Unknown
Altitude
Unknown
Speed
Unknown
Apparent Right ascension
Unknown
Apparent Declination
Unknown
Sunlit
N/A
Visualization observer readout
Local Sidereal Time
19:53:06
Azimuth
Unknown
Elevation
Unknown
Doppler factor
Unknown
Orbital elements
Apogee altitude
782.672 km
Perigee altitude
630.743 km
Semi-major axis
7,084.845 km
Eccentricity
0.01072
Inclination
98.8056°
RAAN
216.4806°
Arg. of periapsis
77.3601°
True anomaly
282.75963°
Mean anomaly
283.9558°
Eccentric anomaly
283.35809°
Mean motion
3.63955 °/min
Orbital period
98.91 mins
BSTAR
0.00077356
Loading maneuver chart data...
Computing Atmospheric mass density...
Loading historical data...
Loading historical data...
Loading historical data...
Loading historical data...
Loading historical data...
Loading historical data...
Loading historical data...

Documentation

Showing up to 5 results
|